Lapse_Rate
4.1 4.1 4.1 4.1 4.1 4.1 4.1 4.2 4.1 4.0 3.9 4.1 4.2 4.4 4.5 4.6 4.8 5.2 5.9 6.9 7.5 8.0 8.2 8.4 8.0 8.1 7.9 7.8 7.8 8.1 8.1 8.0 7.9 7.7 7.8 7.9 7.9 8.1 8.2 8.5 8.7 8.2 8.0 7.9 7.8 8.0 8.0 7.7 7.8 7.9 7.6 7.5 7.7 7.7
4.2 4.2 4.3 4.2 4.2 4.2 4.2 4.3 4.2 4.0 4.0 4.0 4.1 4.3 4.4 4.6 4.7 5.0 5.6 6.5 7.5 8.0 8.2 8.3 8.3 8.3 8.2 8.1 8.1 8.1 7.9 7.8 7.6 7.6 7.6 7.5 7.5 7.6 7.9 8.3 8.1 8.3 8.1 7.9 7.7 7.5 7.1 7.2 7.3 7.3 7.4 7.3 7.4 7.5
4.4 4.4 4.4 4.3 4.2 4.3 4.3 4.3 4.2 4.3 4.2 4.2 4.2 4.3 4.3 4.5 4.6 4.9 5.3 6.0 7.0 7.9 8.3 8.0 8.0 7.9 8.3 8.2 8.1 7.9 7.8 7.7 7.7 7.6 7.6 7.7 7.8 7.7 7.6 7.6 7.5 8.2 7.9 7.8 7.8 7.7 7.5 7.8 7.6 7.5 7.7 7.7 7.6 7.4
4.5 4.4 4.4 4.3 4.3 4.4 4.4 4.3 4.4 4.5 4.5 4.5 4.4 4.5 4.5 4.5 4.6 4.8 5.1 5.5 6.3 7.1 7.6 8.0 7.9 8.0 8.2 8.2 8.1 8.1 7.9 7.8 7.7 7.7 7.7 7.6 7.8 8.1 8.2 8.6 8.6 8.0 7.9 7.8 7.7 7.6 7.6 7.9 7.7 8.0 7.8 7.5 7.4 7.7
4.4 4.4 4.4 4.3 4.3 4.3 4.3 4.3 4.4 4.6 4.7 4.7 4.7 4.8 4.7 4.6 4.6 4.8 5.0 5.3 5.7 6.2 7.1 8.2 8.3 8.0 8.1 8.2 8.1 7.9 7.9 7.7 7.7 7.6 7.6 7.7 7.9 8.1 8.5 8.9 8.9 8.6 8.3 8.3 8.0 7.8 7.8 8.0 8.1 7.9 7.4 7.8 7.8 7.9
4.4 4.4 4.4 4.4 4.3 4.4 4.4 4.4 4.5 4.7 4.8 4.8 4.9 5.0 4.9 4.7 4.7 4.8 5.0 5.1 5.3 5.6 6.1 7.0 7.8 7.8 7.7 8.0 8.0 7.9 7.9 7.8 7.8 7.8 7.5 7.9 8.1 7.9 8.2 8.7 8.7 8.5 8.5 8.2 8.1 7.9 8.0 7.9 7.8 7.6 7.8 7.9 7.9 7.9
4.5 4.5 4.5 4.5 4.5 4.5 4.6 4.7 4.9 5.0 5.0 5.1 5.2 5.2 5.1 5.0 4.9 4.8 5.0 5.0 5.1 5.4 5.8 6.4 7.1 7.6 7.8 7.7 8.0 7.9 7.8 7.8 7.9 8.1 8.1 8.1 8.1 8.3 8.2 8.5 8.2 8.7 8.5 8.4 8.0 8.2 8.2 8.0 8.2 8.0 8.1 8.1 8.0 7.9
4.6 4.7 4.6 4.6 4.6 4.7 4.7 4.9 5.0 5.1 5.1 5.2 5.3 5.3 5.3 5.2 5.1 4.9 5.1 5.1 5.2 5.3 5.6 6.1 6.7 7.5 7.5 7.6 7.7 7.9 7.9 7.9 8.1 8.1 8.0 8.1 8.3 8.2 8.3 8.5 8.5 8.4 8.3 8.3 8.1 8.0 7.9 7.9 7.9 8.1 8.2 8.2 8.1 8.0
4.7 4.7 4.7 4.7 4.7 4.7 4.7 4.8 4.9 4.9 5.1 5.2 5.3 5.4 5.4 5.3 5.2 5.2 5.0 5.2 5.3 5.3 5.4 5.6 6.1 7.1 7.5 7.6 7.8 7.8 7.8 7.8 7.8 8.0 8.0 8.2 8.5 8.4 8.1 8.1 8.3 8.4 8.3 8.2 8.2 8.0 7.9 8.1 8.2 8.2 8.3 8.2 8.1 8.0
4.7 4.6 4.7 4.7 4.8 4.8 4.7 4.7 4.7 4.7 4.8 5.0 5.2 5.5 5.3 5.1 5.1 5.2 5.0 5.0 5.1 5.2 5.3 6.1 5.8 6.6 7.2 7.7 7.7 7.7 7.8 7.9 8.0 8.3 8.2 8.3 8.4 8.2 8.3 8.3 8.3 7.9 8.2 8.0 8.2 8.1 8.3 8.2 8.2 8.2 8.2 8.1 8.1 8.0
4.7 4.6 4.6 4.6 4.6 4.7 4.7 4.6 4.6 4.5 4.5 4.7 4.9 5.0 5.0 5.0 4.9 4.7 5.0 5.1 5.1 5.0 5.7 6.2 5.8 6.1 6.5 6.8 7.2 7.4 7.6 7.7 8.1 8.4 8.4 8.6 8.5 8.2 7.9 8.2 8.2 8.0 7.7 7.6 8.0 8.0 8.1 8.2 8.2 8.2 8.1 8.1 8.1 8.0
4.7 4.6 4.6 4.6 4.5 4.6 4.6 4.6 4.5 4.6 4.6 4.4 4.5 4.7 5.0 4.9 4.2 4.4 4.6 5.0 5.2 5.7 5.8 5.9 5.9 6.0 6.1 6.3 6.3 6.6 6.9 7.3 7.6 7.9 8.1 8.2 8.0 8.0 8.1 8.2 8.1 8.0 8.0 8.1 8.1 8.1 8.1 8.1 8.1 8.1 8.0 8.0 8.0 7.9
4.9 4.8 4.8 4.7 4.7 4.6 4.7 4.6 4.5 4.5 4.4 4.5 4.4 4.6 4.8 4.7 4.3 4.4 4.7 5.1 5.5 5.8 5.9 5.9 5.9 5.9 5.9 5.9 6.0 6.1 6.3 6.7 7.0 7.5 7.9 8.0 7.8 8.0 8.0 8.1 8.1 8.0 8.0 7.9 7.8 7.8 7.8 7.8 7.7 7.8 7.8 7.7 7.7 7.8
5.1 4.9 4.9 4.8 4.7 4.7 4.6 4.6 4.4 4.3 4.2 4.2 4.3 4.5 4.8 4.6 5.1 5.5 5.5 5.8 5.9 5.8 5.8 5.9 5.9 5.9 5.9 5.9 5.9 6.0 6.2 6.4 6.8 7.3 7.7 7.8 7.7 7.7 7.9 7.9 7.9 7.9 7.9 7.8 7.7 7.6 7.6 7.5 7.5 7.5 7.5 7.5 7.5 7.6
5.2 5.2 5.1 5.0 4.9 4.8 4.6 4.5 4.4 4.3 4.2 4.1 4.3 4.5 4.9 5.1 5.2 5.0 5.2 5.5 5.5 5.5 5.7 5.7 5.8 5.7 5.8 5.8 6.0 6.0 6.3 6.4 6.9 7.3 7.4 7.3 7.2 7.2 7.2 7.3 7.2 7.2 7.3 7.4 7.5 7.5 7.5 7.6 7.5 7.4 7.4 7.5 7.4 7.5
5.3 5.3 5.2 5.1 5.0 4.9 4.7 4.6 4.5 4.3 4.2 4.1 4.6 5.1 5.2 5.3 5.3 5.3 5.4 5.6 5.4 5.3 5.4 5.4 5.5 5.7 5.8 5.8 6.0 6.2 6.6 7.0 7.2 7.0 6.9 6.8 7.0 7.0 6.9 6.8 6.7 6.6 6.6 6.7 6.8 6.8 6.9 7.0 7.2 7.4 7.4 7.4 7.4 7.4
5.5 5.5 5.4 5.3 5.2 5.1 5.0 4.8 4.7 4.5 4.4 4.7 5.3 5.4 5.3 5.3 5.3 5.3 5.2 5.3 5.3 5.1 5.2 5.2 5.4 5.6 5.7 6.0 6.4 6.6 6.7 6.8 6.8 6.7 6.6 6.6 6.7 6.7 6.7 6.5 6.5 6.5 6.5 6.5 6.4 6.5 6.4 6.3 6.2 6.5 6.7 6.9 7.1 7.4
5.6 5.6 5.5 5.3 5.3 5.2 5.1 5.0 4.7 4.6 5.2 5.5 5.4 5.4 5.2 5.2 5.2 5.3 5.3 4.9 4.7 4.9 5.1 5.2 5.4 5.6 5.9 6.2 6.4 6.6 6.6 6.6 6.7 6.5 6.6 6.5 6.5 6.5 6.3 6.4 6.3 6.3 6.3 6.2 6.2 6.0 5.9 5.7 5.3 5.5 6.1 6.3 6.5 6.7
5.6 5.6 5.5 5.3 5.4 5.1 4.9 4.9 4.8 4.9 5.5 5.5 5.6 5.4 5.4 5.4 5.3 5.3 5.3 5.1 4.9 4.8 4.9 5.3 5.4 5.6 5.7 5.6 5.9 6.2 6.3 6.4 6.5 6.5 6.4 6.3 6.5 6.5 6.4 6.4 6.3 6.2 6.2 6.1 6.1 6.0 5.8 5.5 5.1 5.2 5.6 5.9 6.0 6.5
5.4 5.6 5.6 5.5 5.1 5.1 4.8 4.9 5.3 5.2 5.6 5.7 5.7 5.6 5.6 5.7 5.6 5.5 5.4 5.3 5.1 4.8 4.9 5.2 5.3 5.4 5.4 5.5 5.6 5.9 6.0 6.2 6.3 6.3 6.3 6.0 6.1 6.2 6.3 6.2 6.1 6.2 6.1 6.1 6.0 5.7 5.6 5.5 5.2 5.1 5.1 5.3 5.9 6.4
5.2 5.3 5.6 5.7 5.5 5.2 4.9 4.9 5.4 5.6 5.6 5.7 5.8 5.6 5.7 5.6 5.6 5.6 5.6 4.9 4.8 5.1 5.2 5.7 5.3 5.4 5.5 5.4 5.7 5.9 6.0 6.0 6.1 6.3 6.3 5.9 6.0 6.2 6.2 6.2 6.2 6.2 6.2 6.1 5.9 5.6 5.4 5.2 5.0 4.8 4.9 5.1 5.7 6.3
5.4 5.3 5.5 5.7 5.6 5.2 5.2 5.4 5.5 5.5 5.6 5.7 5.8 5.6 5.6 5.7 5.6 5.7 5.1 4.9 5.4 6.3 5.8 5.6 5.6 5.3 5.4 5.5 5.5 5.5 5.8 5.8 6.2 6.4 6.4 6.4 6.3 6.3 6.3 6.3 6.3 6.2 6.2 6.1 5.6 5.4 5.0 4.9 4.8 4.7 4.9 5.2 5.7 6.2
5.5 5.4 5.4 5.5 5.5 5.1 4.9 5.6 5.5 5.8 5.6 5.5 5.7 5.3 5.5 5.4 5.1 5.3 5.2 5.9 6.1 5.9 5.5 5.4 5.3 5.3 5.2 5.4 5.6 5.6 5.7 5.9 6.0 6.4 6.7 6.5 6.6 6.6 6.5 6.5 6.5 6.3 6.2 6.0 5.5 5.1 5.1 4.9 4.9 4.8 5.0 5.3 5.9 6.5
5.7 5.7 5.1 5.2 5.5 5.1 5.1 5.5 5.8 6.0 5.4 5.6 5.3 5.2 5.2 5.2 5.1 5.1 5.9 6.1 6.0 5.9 5.7 5.5 5.4 5.3 5.2 5.3 5.4 5.4 5.9 6.0 5.9 6.6 6.6 6.6 6.5 6.6 6.6 6.5 6.4 6.3 6.2 5.9 5.5 5.0 4.9 4.9 4.9 4.9 5.1 5.4 5.9 6.5
5.7 5.7 5.5 5.1 4.9 5.1 4.9 5.2 5.9 5.9 6.0 6.0 5.3 5.3 5.4 5.4 5.3 4.9 5.9 6.2 6.2 5.9 5.7 5.8 5.7 5.8 5.6 5.5 5.6 5.8 6.0 6.0 6.1 6.4 6.7 6.5 6.5 6.5 6.5 6.5 6.3 6.2 6.1 5.8 5.3 5.0 4.9 5.0 5.0 5.1 5.1 5.4 5.9 6.5
5.7 5.9 5.9 5.3 5.0 5.5 5.3 5.6 6.0 6.3 6.0 5.8 5.8 5.7 5.7 5.4 5.1 5.2 5.8 6.3 6.2 6.0 6.1 6.1 6.0 6.1 5.9 5.8 6.0 6.1 6.0 6.0 6.1 6.2 6.5 6.6 6.5 6.5 6.4 6.4 6.3 6.4 5.9 5.7 5.3 5.1 5.0 5.1 5.1 5.2 5.3 5.6 6.0 6.4
5.9 5.8 5.7 5.7 5.5 5.8 5.7 6.0 5.8 6.0 5.9 6.0 6.0 6.0 5.8 5.4 5.5 5.6 6.1 6.1 6.0 6.1 6.1 6.0 5.9 6.0 6.1 5.9 6.0 5.9 5.8 6.0 6.2 6.1 6.0 6.2 6.4 6.4 6.4 6.4 6.2 6.1 6.0 5.6 5.3 5.1 5.1 5.1 5.3 5.3 5.4 5.6 5.9 6.2
6.1 6.2 5.8 6.2 6.1 5.7 5.7 5.8 5.8 5.9 6.2 6.1 6.2 6.2 6.0 5.9 5.6 5.6 5.9 5.7 5.8 5.9 5.7 5.5 5.6 5.8 5.9 5.8 5.8 5.6 5.6 5.8 6.1 6.1 6.0 6.2 6.4 6.4 6.3 6.3 6.2 6.1 6.0 5.7 5.4 5.2 5.1 5.1 5.3 5.4 5.4 5.5 5.7 5.9
5.8 6.1 5.9 5.7 5.9 5.9 5.8 5.9 6.0 6.3 6.5 6.4 6.2 6.0 5.8 5.7 5.7 5.8 5.6 5.3 5.4 5.4 5.4 5.3 5.3 5.4 5.4 5.3 5.2 5.1 5.2 5.3 5.6 5.9 6.0 6.1 6.2 6.2 6.3 6.3 6.2 6.1 6.0 5.7 5.4 5.3 5.1 5.1 5.3 5.4 5.4 5.4 5.5 5.7
6.0 6.0 6.0 5.9 6.0 6.2 6.4 6.5 6.5 6.3 6.2 6.0 5.8 5.8 5.7 5.6 5.7 5.4 5.3 5.5 5.5 5.4 5.2 5.0 5.1 5.1 5.0 5.0 5.0 4.9 5.0 4.9 5.1 5.4 5.7 5.8 6.1 6.1 6.1 6.2 6.1 6.0 5.9 5.7 5.5 5.3 5.1 5.0 5.2 5.3 5.3 5.3 5.3 5.5
6.0 6.1 6.0 6.1 6.2 6.4 6.5 6.2 6.2 6.1 5.9 5.8 5.7 5.5 5.6 5.7 5.7 5.4 5.2 5.6 5.8 5.5 5.2 5.0 4.7 4.7 4.6 4.6 4.6 4.5 4.5 4.7 4.8 5.2 5.6 5.7 5.8 5.8 6.0 6.0 6.0 6.0 5.9 5.6 5.5 5.3 5.0 4.9 5.0 5.2 5.2 5.2 5.2 5.3
6.3 6.3 6.4 6.4 6.5 6.4 6.3 6.1 5.9 5.7 5.6 5.5 5.8 5.5 5.4 5.2 5.3 5.3 5.6 5.9 5.6 5.2 4.8 4.6 4.4 4.3 4.5 4.5 4.5 4.6 4.7 4.6 4.8 5.1 5.3 5.4 5.7 5.6 5.8 5.8 5.8 5.8 5.7 5.6 5.4 5.3 5.0 4.8 4.9 5.0 5.1 5.1 5.1 5.2
6.5 6.5 6.4 6.3 6.2 6.1 5.9 5.9 5.6 5.5 5.7 5.8 5.6 5.5 5.7 5.5 5.2 5.1 5.3 5.2 5.0 4.9 4.8 4.7 4.6 4.5 4.4 4.4 4.4 4.4 4.5 4.6 4.8 5.1 5.2 5.3 5.4 5.4 5.6 5.7 5.7 5.6 5.5 5.4 5.3 5.2 5.0 4.8 4.8 4.9 5.0 5.0 5.1 5.1
Wind_Speed
14 13 11 8 6 5 5 5 6 6 7 8 9 9 10 10 8 6 5 3 3 3 12 10 12 13 11 9 8 10 6 4 2 3 3 3 4 4 5 10 9 2 2 3 6 7 8 9 2 4 3 5 7 8
15 13 10 8 5 4 3 3 4 5 7 8 9 10 10 11 10 6 3 1 3 4 7 17 17 16 12 11 8 6 7 4 2 3 3 4 6 4 9 5 8 2 4 2 3 0 7 3 6 5 7 6 8 9
15 13 11 8 6 4 2 3 4 6 7 9 10 11 11 11 10 8 5 5 2 3 9 6 6 3 5 7 6 3 2 2 1 1 3 3 4 3 2 2 2 6 11 1 2 6 5 6 4 5 6 8 10 10
15 13 11 8 6 3 0 3 5 7 9 10 11 12 12 12 12 11 5 3 3 4 4 6 3 5 0 6 5 9 8 5 4 3 2 4 5 5 5 5 5 1 4 5 3 4 5 13 10 7 10 9 11 12
15 13 11 8 5 2 2 5 7 9 10 11 12 13 13 14 13 11 5 3 3 3 3 8 16 11 3 5 5 4 6 5 1 3 4 6 5 6 7 2 5 6 8 5 3 5 6 8 9 7 9 11 11 13
15 13 11 8 6 4 4 6 8 10 12 13 14 14 14 14 10 5 2 4 6 3 3 4 9 7 3 3 5 4 4 5 2 3 7 4 6 4 5 5 8 11 5 7 5 9 7 5 3 13 10 11 10 10
15 14 11 9 6 5 5 7 9 11 13 14 15 15 16 13 7 3 1 1 5 6 2 4 3 2 1 4 2 4 3 3 3 3 4 6 6 3 3 6 10 6 9 8 8 7 7 11 8 8 10 11 12 13
15 13 11 9 7 6 6 8 10 13 15 16 16 16 15 9 8 5 4 4 4 3 2 3 4 4 1 2 2 3 2 3 4 4 4 6 4 4 3 7 12 12 12 7 1 4 6 6 8 10 10 10 11 11
12 12 11 10 9 7 6 7 12 15 17 18 16 13 4 4 3 3 3 5 6 3 3 3 6 4 2 4 3 2 2 3 3 4 6 4 6 4 3 7 9 11 5 7 5 5 4 8 8 10 9 9 10 11
10 7 6 6 8 8 9 10 14 18 21 20 7 4 1 1 1 4 3 2 3 4 4 4 7 6 3 2 2 3 1 3 3 3 2 4 7 10 7 5 5 5 4 6 5 6 6 7 9 9 8 8 8 10
10 9 9 9 9 9 9 10 14 18 14 3 1 1 3 6 3 3 2 3 4 4 4 6 7 6 2 3 4 2 2 3 3 1 3 3 1 1 3 3 4 4 4 5 5 4 5 7 7 8 8 7 8 10
11 12 10 9 10 7 9 8 10 6 4 6 5 5 3 2 3 3 3 4 5 4 4 5 2 4 1 1 2 3 3 2 5 2 3 3 3 4 4 2 2 2 3 5 5 5 6 6 7 8 9 8 9 9
14 14 13 12 10 9 8 8 7 9 15 4 3 2 3 4 5 5 6 4 4 4 3 3 3 1 1 2 1 2 2 4 5 2 3 0 6 5 5 4 3 5 5 6 8 8 7 6 8 8 8 6 6 8
15 15 13 11 10 9 8 7 6 7 4 3 4 4 5 5 6 6 7 3 2 3 2 4 0 1 0 2 2 3 4 3 4 4 8 3 6 4 5 3 1 3 4 4 8 10 6 1 3 3 4 5 5 5
14 14 14 13 12 10 8 10 11 6 3 4 3 5 7 7 6 4 4 3 2 1 3 1 2 3 2 2 3 4 4 4 4 6 2 4 3 3 3 3 4 5 5 5 6 5 2 4 4 5 6 6 6 4
12 9 11 15 14 12 8 6 6 5 3 3 6 6 6 6 4 2 4 5 4 3 1 1 2 2 3 3 5 6 4 5 2 3 5 3 2 2 3 3 3 5 6 7 7 8 6 4 5 8 8 5 5 6
11 3 8 22 16 10 10 3 4 4 4 5 5 6 7 6 5 5 7 7 6 5 4 3 4 6 3 4 4 4 7 5 4 2 2 3 2 2 2 3 2 4 6 6 7 5 5 7 6 6 8 9 6 8
6 9 13 16 18 9 5 4 3 5 8 7 7 5 6 5 6 6 5 5 6 7 8 8 4 8 5 7 8 4 3 3 2 1 2 1 1 2 2 5 6 7 8 8 7 9 10 10 8 7 7 9 11 9
6 10 18 16 8 2 5 4 4 4 6 6 6 6 6 4 5 5 5 6 7 8 5 5 7 7 9 8 8 7 3 2 2 2 2 5 3 3 1 5 6 7 7 8 9 7 8 10 9 6 7 8 8 7
7 16 16 11 7 2 4 3 4 4 4 3 5 7 7 6 6 6 6 7 7 6 7 8 12 8 6 5 4 3 2 2 2 3 4 4 4 5 4 4 5 7 7 8 7 7 7 8 8 8 9 9 8 6
11 8 11 9 5 4 3 3 5 4 4 4 4 5 5 5 6 7 7 6 7 9 10 9 10 8 7 5 4 2 2 3 4 4 4 1 4 1 2 3 5 5 5 6 7 7 8 6 7 7 8 7 4 4
4 18 3 5 3 5 5 5 4 2 3 4 5 5 5 4 5 7 5 6 4 9 10 9 9 8 9 11 9 8 5 3 4 3 3 2 1 1 2 3 3 4 5 5 5 6 5 5 6 6 6 6 5 5
12 5 3 4 5 5 5 6 5 4 4 3 3 3 4 3 3 1 3 4 5 6 6 8 10 12 12 12 10 2 3 6 4 4 3 2 2 2 1 1 3 2 2 4 5 5 5 6 6 6 6 6 6 5
4 4 5 7 8 4 4 5 4 3 3 5 3 3 4 3 3 3 5 6 6 3 4 7 6 6 5 2 4 5 5 4 3 4 3 3 3 2 2 2 3 1 2 4 4 5 5 5 6 6 5 6 7 6
5 6 5 6 6 5 6 5 5 6 4 7 4 4 2 3 3 4 6 2 2 3 3 5 5 5 6 4 3 3 5 4 4 5 4 3 2 1 2 3 3 1 1 2 4 5 4 4 4 5 6 5 7 8
7 8 9 8 6 6 7 5 8 8 6 5 6 2 1 2 3 5 2 2 2 1 1 3 5 5 4 4 6 6 5 3 3 4 4 4 3 3 4 4 4 4 3 2 2 4 5 4 5 6 5 6 7 8
7 9 6 5 4 5 3 3 4 3 4 5 3 5 5 5 6 3 3 3 1 1 1 2 3 4 3 3 5 5 5 4 1 1 4 4 2 1 1 2 3 4 4 3 1 3 4 5 5 5 4 5 7 6
6 6 9 9 7 6 5 4 6 5 4 4 3 7 4 4 2 2 2 3 2 2 3 2 0 1 3 4 5 5 5 5 5 5 4 3 3 2 1 3 5 3 4 3 1 1 3 4 4 5 4 6 5 5
5 5 7 7 8 6 6 6 4 5 4 5 3 5 3 1 2 1 3 3 4 4 4 4 3 2 4 5 5 5 5 6 9 10 10 6 6 5 4 4 4 3 2 4 4 3 3 2 5 5 6 4 3 4
7 8 8 9 6 8 6 5 4 1 2 5 3 4 5 3 3 3 3 4 5 5 6 5 5 7 7 8 7 8 6 7 7 6 7 7 6 7 7 6 5 4 3 3 4 5 4 3 3 4 4 4 4 4
7 8 5 6 5 7 5 2 2 2 2 4 4 6 8 6 3 3 5 4 5 4 6 7 7 7 7 8 8 9 8 7 8 6 3 3 7 7 7 6 5 4 4 4 3 4 4 2 3 4 4 4 4 5
6 8 5 6 5 4 4 4 3 3 5 7 8 6 7 7 10 1 3 3 2 4 5 5 6 7 8 8 6 6 6 7 8 7 9 6 6 7 7 6 5 5 5 5 4 4 2 3 3 3 4 5 4 4
3 5 5 4 4 5 4 4 3 3 5 7 7 3 2 3 3 3 2 4 3 3 4 5 6 6 8 4 6 6 6 7 10 11 10 8 10 10 6 5 5 6 6 5 5 5 5 6 5 5 4 4 4 5
Wind_Direction
167 158 156 146 133 112 90 70 51 33 14 5 1 357 354 349 330 325 334 2 323 268 292 280 313 316 320 323 329 338 330 27 324 334 306 329 299 307 276 275 266 274 295 274 262 237 242 356 292 31 97 52 26 29
166 164 159 151 140 122 90 55 32 14 2 352 348 347 345 344 340 312 277 303 258 248 278 301 288 281 274 295 306 315 301 322 23 304 334 312 303 304 307 292 350 223 241 2 167 335 273 121 148 51 46 29 13 2
167 167 166 163 158 143 92 23 3 354 348 343 339 336 334 331 328 303 306 323 289 271 297 272 270 318 272 268 261 280 344 359 324 127 302 293 299 315 5 330 351 352 344 3 184 172 223 223 164 86 62 22 351 337
172 175 176 176 170 159 172 338 339 338 335 335 331 329 326 324 319 308 276 279 276 299 285 300 324 281 315 291 272 241 272 269 281 293 265 275 298 263 328 318 16 323 5 349 92 40 296 31 17 28 9 355 358 353
177 180 183 185 185 208 286 316 323 325 325 325 323 322 319 319 313 290 261 261 245 279 298 300 294 282 277 287 295 276 255 274 287 290 260 290 311 342 320 319 12 56 24 20 52 360 20 18 12 1 19 6 357 1
183 185 190 194 204 238 282 306 314 317 319 318 317 316 315 314 306 265 339 205 229 269 298 297 323 259 216 220 276 260 242 248 169 253 294 282 300 321 322 337 5 1 27 78 10 8 342 304 26 27 7 11 357 334
185 190 196 204 220 249 283 303 309 313 314 314 313 311 312 303 265 251 328 54 341 306 262 278 284 267 259 292 264 271 263 249 282 291 259 271 280 240 282 306 327 352 1 5 30 353 353 22 6 8 15 3 353 345
191 194 205 215 228 250 282 297 307 311 312 311 309 308 307 292 260 262 191 189 305 282 267 271 285 267 204 281 285 218 233 212 215 241 266 281 287 236 256 343 357 357 351 344 29 14 10 2 360 11 10 5 351 352
199 206 216 225 231 245 267 298 312 310 309 308 305 303 273 235 224 100 210 249 245 251 283 265 276 314 278 325 313 278 243 256 238 235 256 267 280 252 11 1 341 327 323 229 4 16 359 15 357 3 10 9 351 340
187 192 202 212 238 261 256 307 310 309 306 307 280 186 273 143 8 196 180 188 201 215 228 251 270 278 290 313 284 301 255 274 265 221 250 237 266 83 45 1 343 19 5 8 353 2 4 351 358 353 22 2 336 345
213 226 241 237 255 250 282 294 306 316 297 212 256 261 75 143 234 204 228 216 207 227 212 238 243 268 123 317 318 285 288 269 277 294 284 282 354 62 12 354 350 359 11 29 358 345 348 359 347 347 359 358 339 345
230 236 242 248 250 259 266 282 293 299 14 341 304 282 293 264 229 221 227 221 228 242 193 206 218 252 242 68 282 312 270 273 254 20 299 267 107 80 97 115 315 347 6 346 331 334 342 345 347 352 351 357 347 332
220 227 232 235 237 241 247 256 269 283 296 245 214 237 211 204 234 225 200 220 219 212 238 228 226 327 279 64 286 265 278 249 319 259 236 356 108 83 76 67 341 343 332 332 329 330 329 1 3 356 334 323 311 322
219 220 220 223 229 227 237 249 256 269 262 230 204 231 219 197 232 206 241 226 178 177 197 250 262 53 247 263 235 249 249 278 247 231 253 127 118 115 102 111 309 318 360 329 321 319 346 308 303 272 265 288 282 294
213 219 222 218 220 223 234 251 243 228 266 232 213 240 224 233 246 246 292 281 297 257 224 184 290 250 217 227 235 238 233 236 231 257 73 129 136 84 60 36 5 349 354 318 312 307 283 240 246 259 249 254 246 251
205 217 224 217 206 208 228 207 173 216 251 241 236 231 254 274 234 305 259 250 254 204 111 195 245 261 236 234 224 219 247 232 286 27 116 165 194 60 23 354 345 345 324 316 306 302 313 306 267 273 286 242 228 221
192 248 167 190 189 186 194 213 197 224 237 235 236 238 261 273 261 223 212 238 250 187 193 226 215 221 220 234 233 240 255 309 354 98 144 99 63 28 35 322 198 270 293 288 281 289 285 282 278 282 290 295 274 223
216 161 140 154 162 166 185 219 235 232 237 241 250 246 239 239 248 251 240 256 231 219 201 224 257 225 225 241 239 251 18 360 332 135 190 162 115 60 10 333 306 325 315 309 334 322 313 314 316 305 323 310 304 279
204 154 157 168 195 208 179 211 239 256 245 254 261 255 250 250 255 265 270 269 249 267 225 218 236 235 244 260 277 290 309 38 4 16 162 217 201 122 322 296 300 306 332 336 319 320 327 328 334 337 318 297 291 290
163 162 168 177 202 230 229 216 201 255 264 250 241 246 247 245 239 238 229 234 248 241 240 231 236 241 257 275 294 312 2 39 330 296 293 99 140 168 241 321 329 336 338 336 338 337 344 337 336 334 325 320 319 307
179 161 172 174 194 244 284 258 220 243 261 258 274 260 257 245 236 232 234 227 234 234 239 236 247 252 244 263 278 275 288 314 273 274 290 274 129 175 316 346 2 353 344 346 342 343 346 323 335 1 2 4 8 41
167 153 136 207 217 215 244 234 242 326 272 262 279 252 259 255 248 246 238 224 237 232 238 245 249 255 250 250 255 245 212 261 108 108 105 118 216 8 9 5 360 17 9 329 324 326 12 10 7 3 8 359 5 7
127 145 170 166 206 221 252 205 219 212 224 238 224 235 236 238 239 136 243 231 243 243 243 246 253 251 251 256 259 211 167 167 173 199 145 173 130 141 187 71 74 51 317 346 349 3 23 17 8 2 357 0 2 6
130 183 199 192 204 216 193 200 212 234 218 226 231 240 245 220 190 223 252 251 261 229 230 244 272 280 251 268 229 164 161 164 200 129 150 178 199 195 151 109 102 105 11 329 354 3 16 4 360 360 358 359 358 355
165 194 221 207 208 207 195 192 203 209 236 214 227 225 239 188 216 240 252 258 58 25 354 319 266 253 252 213 125 116 126 163 200 176 168 194 210 125 180 155 159 168 115 10 350 334 4 0 359 353 352 8 2 343
203 195 204 205 186 200 187 201 197 210 222 222 228 227 173 208 231 238 240 113 130 283 233 262 257 249 231 210 168 159 165 179 202 201 158 163 190 204 219 206 195 158 110 111 3 333 345 360 347 339 341 27 13 18
209 203 186 224 198 187 216 236 202 194 197 214 210 180 181 225 232 224 124 142 217 119 249 222 235 264 247 120 116 121 130 148 172 138 105 134 164 197 225 225 233 109 116 98 43 14 337 346 347 344 344 72 40 27
213 207 181 184 205 207 212 209 189 209 220 216 202 202 215 218 252 85 86 120 132 161 177 167 223 6 89 102 114 125 123 101 103 99 98 107 111 117 127 103 87 60 90 91 65 339 5 348 347 327 55 72 58 29
201 185 159 178 183 202 217 210 221 210 209 198 218 217 218 288 43 115 137 157 161 175 177 179 174 105 114 133 150 164 157 167 172 181 190 189 178 187 179 162 163 173 146 143 104 54 45 21 9 75 73 69 67 79
177 171 189 173 188 208 200 202 230 287 286 275 277 287 287 240 197 211 192 186 197 204 212 206 185 183 182 180 180 185 187 195 205 194 197 212 205 157 157 165 173 165 175 180 145 133 172 197 154 95 62 43 26 38
157 183 208 194 214 213 225 112 116 157 220 253 268 272 277 290 292 252 240 226 213 207 229 234 218 211 208 196 191 192 197 195 207 209 178 128 133 146 152 158 162 165 174 164 167 160 157 154 111 97 83 70 47 32
160 182 176 195 227 148 150 190 217 237 243 249 256 255 262 257 262 219 24 359 274 259 282 298 281 260 225 217 207 187 172 177 180 179 166 160 152 149 146 146 156 166 163 160 141 122 136 113 106 110 106 80 56 35
181 182 195 189 150 172 159 187 209 241 238 251 261 299 335 331 301 70 100 43 27 352 325 315 309 318 327 256 184 172 166 159 162 157 165 164 145 142 143 149 176 159 152 143 138 137 137 131 120 109 90 77 64 46